Latrobe, PA

4:18 AM EST on December 12, 2019 (GMT -0500)
Arnold Palmer Regional

Weather History for KLBE - June, 2019

Change the Weather History Date:

Tuesday, June 11, 2019

  Actual Average Record
Temperature  
Mean Temperature 60 °F -  
Max Temperature 71 °F 76 °F 91 °F (1999)
Min Temperature 50 °F 57 °F 39 °F (2006)
Degree Days  
Heating Degree Days 4    
Growing Degree Days 10 (Base 50)    
Moisture  
Dew Point 51 °F    
Average Humidity 79    
Maximum Humidity 100    
Minimum Humidity 38    
Precipitation  
Precipitation 0.00 in - - ()
Sea Level Pressure  
Sea Level Pressure 30.13 in    
Wind  
Wind Speed 6 mph (WNW)    
Max Wind Speed 22 mph    
Max Gust Speed 28 mph    
Visibility 12 miles    
Events Rain    
Averages and records for this station are not official NWS values.
T = Trace of Precipitation, MM = Missing Value Source: NWS Daily Summary

Daily Weather History Graph

Daily Weather History Graph

Search for Another Location

Airport or City:

Astronomy

Jun. 11, 2019 Rise Set
Actual Time 5:47 AM EDT 8:47 PM EDT
Civil Twilight 5:14 AM EDT 9:20 PM EDT
Nautical Twilight 4:32 AM EDT 10:01 PM EDT
Astronomical Twilight 3:44 AM EDT 10:50 PM EDT
Moon 2:44 PM EDT (6/11) 2:31 AM EDT (6/11)
Length of Visible Light 16h 05m
Length of Day
14h 59m
Waxing Gibbous, 66% of the Moon is Illuminated
Jun 11
Waxing Gibbous
Jun 17
Full
Jun 25
Last Quarter
Jul 2
New
Jul 9
First Quarter

Hourly Weather History & Observations

Time (EDT) Temp. Dew Point Humidity Pressure Visibility Wind Dir Wind Speed Gust Speed Precip Events Conditions
12:15 AM 59.0 °F 59.0 °F 100% 30.05 in 10.0 mi NW 5.8 mph 11.5 mph N/A   Overcast
12:35 AM 59.0 °F 59.0 °F 100% 30.06 in 10.0 mi NNW 9.2 mph - N/A   Overcast
12:55 AM 59.0 °F 59.0 °F 100% 30.07 in 3.0 mi Calm Calm 12.7 mph N/A Rain Light Rain
1:15 AM 57.2 °F 57.2 °F 100% 30.07 in 2.5 mi WNW 11.5 mph - N/A Rain Light Rain
1:35 AM 57.2 °F 57.2 °F 100% 30.08 in 10.0 mi WNW 6.9 mph 15.0 mph N/A   Overcast
1:55 AM 57.2 °F 57.2 °F 100% 30.08 in 10.0 mi WNW 4.6 mph 11.5 mph N/A   Mostly Cloudy
2:15 AM 57.2 °F 57.2 °F 100% 30.08 in 10.0 mi Variable 4.6 mph - N/A   Overcast
2:35 AM 57.2 °F 57.2 °F 100% 30.09 in 10.0 mi West 4.6 mph - N/A   Overcast
2:55 AM 57.2 °F 57.2 °F 100% 30.09 in 10.0 mi West 8.1 mph 15.0 mph N/A   Overcast
3:15 AM 55.4 °F 53.6 °F 94% 30.10 in 10.0 mi WNW 6.9 mph - N/A   Mostly Cloudy
3:35 AM 55.4 °F 53.6 °F 94% 30.10 in 10.0 mi West 4.6 mph - N/A   Mostly Cloudy
3:55 AM 53.6 °F 53.6 °F 100% 30.11 in 10.0 mi Calm Calm - N/A   Scattered Clouds
4:15 AM 53.6 °F 53.6 °F 100% 30.11 in 10.0 mi Calm Calm - N/A   Clear
4:35 AM 51.8 °F 51.8 °F 100% 30.11 in 10.0 mi Calm Calm - N/A   Clear
4:55 AM 51.8 °F 51.8 °F 100% 30.12 in 10.0 mi Calm Calm - N/A   Clear
5:15 AM 51.8 °F 51.8 °F 100% 30.12 in 10.0 mi Calm Calm - N/A   Clear
5:35 AM 50.0 °F 50.0 °F 100% 30.12 in 10.0 mi SSW 4.6 mph - N/A   Clear
5:55 AM 50.0 °F 50.0 °F 100% 30.13 in 10.0 mi SSW 6.9 mph - N/A   Clear
6:51 AM 53.6 °F 53.6 °F 100% 30.14 in 20.0 mi SW 6.9 mph - N/A   Clear
7:51 AM 55.4 °F 53.6 °F 94% 30.16 in 20.0 mi West 4.6 mph - N/A   Clear
8:51 AM 59.0 °F 50.0 °F 72% 30.17 in 20.0 mi Calm Calm - N/A   Clear
9:51 AM 60.8 °F 50.0 °F 68% 30.18 in 20.0 mi Variable 5.8 mph - N/A   Clear
10:51 AM 64.4 °F 46.4 °F 52% 30.18 in 20.0 mi WNW 21.9 mph 27.6 mph N/A   Clear
11:47 AM 66.2 °F 48.2 °F 52% 30.18 in 20.0 mi North 13.8 mph 23.0 mph N/A   Partly Cloudy
12:47 PM 68.0 °F 48.2 °F 49% 30.18 in 20.0 mi NW 13.8 mph - N/A   Partly Cloudy
1:47 PM 69.8 °F 48.2 °F 46% 30.17 in 20.0 mi NW 13.8 mph - N/A   Scattered Clouds
2:47 PM 71.6 °F 46.4 °F 41% 30.16 in 20.0 mi NW 13.8 mph - N/A   Partly Cloudy
3:50 PM 71.6 °F 44.6 °F 38% 30.15 in 10.0 mi NW 13.8 mph 25.3 mph N/A   Scattered Clouds
4:50 PM 71.6 °F 44.6 °F 38% 30.15 in 10.0 mi NW 11.5 mph 23.0 mph N/A   Scattered Clouds
5:50 PM 71.6 °F 46.4 °F 41% 30.14 in 10.0 mi NW 17.3 mph - N/A   Clear
6:50 PM 69.8 °F 42.8 °F 38% 30.13 in 10.0 mi NW 13.8 mph - N/A   Clear
7:50 PM 69.8 °F 42.8 °F 38% 30.13 in 10.0 mi NW 11.5 mph - N/A   Clear
8:50 PM 66.2 °F 42.8 °F 43% 30.14 in 10.0 mi NW 6.9 mph - N/A   Clear
9:50 PM 59.0 °F 48.2 °F 67% 30.16 in 10.0 mi Calm Calm - N/A   Clear
10:15 PM 57.2 °F 50.0 °F 77% 30.17 in 10.0 mi Calm Calm - N/A   Clear
10:35 PM 57.2 °F 50.0 °F 77% 30.18 in 10.0 mi Calm Calm - N/A   Clear
10:55 PM 55.4 °F 50.0 °F 82% 30.18 in 10.0 mi Calm Calm - N/A   Clear
11:15 PM 53.6 °F 50.0 °F 88% 30.18 in 10.0 mi Calm Calm - N/A   Clear
11:35 PM 53.6 °F 50.0 °F 88% 30.19 in 10.0 mi Calm Calm - N/A   Clear
11:55 PM 51.8 °F 50.0 °F 94% 30.18 in 10.0 mi Calm Calm - N/A   Clear